RH
46 43 42 40 39 37 35 34 31 26 21 18 18 16 15 24 30 38 52 63 68 60 61 92 98 98 97 98 97 95 98 99 100 99 96 94 85 81 78 72 80 84 92 95 98 97 84 58 62 62 54 50 49 49
49 47 44 42 41 39 36 33 28 24 20 18 17 16 14 13 21 36 48 58 66 65 64 90 96 98 98 98 97 97 98 98 99 99 96 89 90 86 77 84 78 85 76 76 74 71 69 67 65 64 59 57 58 62
51 50 47 44 42 40 37 33 25 20 18 16 15 15 6 10 19 33 44 52 57 57 64 86 94 98 98 97 98 97 98 98 98 98 99 98 93 86 90 85 84 85 81 80 78 78 73 74 73 72 72 70 70 73
52 52 49 46 41 37 32 28 24 19 13 13 9 7 6 9 19 32 44 55 56 56 65 81 91 96 97 98 98 98 98 98 98 98 97 97 95 89 87 86 86 87 86 83 86 83 81 81 80 78 78 78 77 78
54 55 51 44 40 35 32 29 25 21 12 10 9 8 9 12 23 31 44 56 56 58 62 75 88 93 89 97 98 97 98 98 98 97 97 98 97 97 92 89 90 93 93 90 86 85 86 87 87 86 85 83 81 80
58 59 53 45 41 37 34 30 27 21 13 11 10 10 14 19 25 35 44 52 48 53 60 70 85 89 84 89 93 94 95 96 97 98 98 98 98 98 96 95 97 96 97 97 96 96 93 91 92 91 87 87 86 88
59 61 54 48 44 40 36 32 28 22 13 12 13 13 19 19 25 31 36 38 45 52 64 71 78 79 78 83 88 91 92 96 97 97 96 96 95 97 95 94 96 97 97 97 97 96 95 95 95 94 92 92 95 97
64 64 58 52 48 44 39 35 30 22 14 13 16 19 23 22 23 30 37 40 41 54 61 68 67 75 76 83 84 86 91 94 96 98 97 96 96 97 95 96 95 96 96 96 96 96 97 97 97 97 97 97 97 97
72 69 66 58 51 47 42 38 32 24 16 15 18 17 20 23 26 30 36 39 43 47 62 62 68 74 77 84 89 88 92 93 93 96 95 92 93 95 95 96 96 97 97 97 97 97 97 97 97 97 97 97 96 96
79 76 74 65 56 51 45 41 35 25 18 17 20 24 28 27 30 32 33 37 43 45 58 62 67 73 73 85 88 90 94 95 94 96 95 93 94 97 97 97 98 98 97 97 97 97 97 97 97 97 97 97 95 91
85 80 77 70 62 55 49 43 37 27 21 20 22 26 23 25 27 32 37 41 49 56 55 58 62 68 68 84 92 96 96 96 96 95 96 96 95 97 96 97 98 97 97 97 97 97 98 98 97 96 95 94 94 93
87 86 81 76 67 59 53 48 41 30 24 23 21 22 20 13 15 21 23 28 29 51 43 53 58 70 71 74 87 93 96 96 96 93 96 95 98 98 98 98 97 97 97 98 98 98 98 98 98 97 97 97 94 91
86 88 85 80 70 62 56 51 43 32 26 24 20 18 20 20 25 32 33 28 30 30 33 37 49 68 83 85 75 86 94 96 94 95 95 96 98 98 98 98 98 98 98 98 98 98 98 98 98 97 92 90 86 83
84 88 86 83 76 67 60 56 45 35 28 24 24 28 29 32 34 36 34 33 32 32 35 35 38 59 80 88 94 87 82 86 92 95 97 97 98 98 98 98 98 98 98 98 98 98 97 95 92 90 85 82 79 75
85 87 87 85 80 72 67 60 47 37 31 28 29 34 33 33 33 36 36 33 34 35 35 35 42 55 77 88 93 97 92 89 86 89 93 98 99 98 98 98 98 98 98 98 98 97 94 91 86 83 80 76 73 70
85 88 88 86 83 78 74 67 51 42 35 32 32 36 37 37 37 38 38 35 33 32 35 40 50 63 72 87 92 97 97 97 91 89 88 94 98 99 99 99 98 98 98 98 97 93 88 84 80 77 75 73 69 63
89 89 91 91 88 83 79 72 55 46 39 38 40 37 39 38 40 42 38 38 32 37 42 44 54 67 75 80 86 95 97 98 99 98 97 93 92 97 99 99 99 99 98 97 94 89 85 82 80 76 69 64 62 60
95 92 92 93 90 86 83 74 60 52 47 44 45 43 43 43 41 43 41 37 34 38 43 50 52 53 60 77 86 91 98 100 100 100 100 99 99 99 99 99 99 99 98 95 91 89 85 81 76 70 69 67 62 59
96 94 96 95 92 93 85 73 67 60 54 48 47 46 47 48 44 44 44 38 35 38 44 50 54 59 62 66 74 89 97 100 100 99 99 99 99 99 99 99 98 96 94 92 89 86 82 78 76 72 67 63 60 57
94 95 97 97 95 95 90 81 75 67 59 55 51 53 52 52 48 47 46 39 37 43 50 56 57 60 64 67 71 79 93 100 100 100 99 99 99 99 99 99 99 99 98 95 91 87 83 79 75 71 67 64 61 57
96 97 97 98 97 97 95 88 82 72 62 59 58 59 57 56 52 50 47 39 42 46 50 55 59 63 67 72 74 76 85 98 100 100 100 99 99 99 99 99 99 99 98 94 90 86 82 78 74 70 66 61 58 54
97 97 97 97 97 96 89 87 83 70 64 64 64 63 63 63 57 51 47 42 44 47 52 57 62 67 72 76 80 82 84 89 99 100 100 100 99 99 99 99 99 99 97 94 90 87 82 76 70 65 63 61 58 55
99 98 95 96 97 91 85 84 78 74 70 69 69 69 68 69 60 53 50 43 45 49 54 61 67 72 76 80 84 86 87 90 94 99 100 100 100 100 100 99 99 98 96 93 90 86 81 75 72 70 67 63 61 58
98 97 95 94 91 85 84 79 78 76 73 74 74 72 73 73 63 56 49 46 48 51 56 63 69 75 79 83 87 90 91 93 96 97 99 100 100 100 99 99 99 98 96 93 89 85 83 80 75 71 69 66 63 60
97 95 95 94 88 87 88 88 83 80 77 80 79 79 80 75 65 57 47 47 49 53 59 66 72 77 82 85 88 91 93 94 96 97 98 99 99 99 99 99 98 97 96 94 91 88 84 80 78 75 73 72 70 69
96 95 91 88 85 89 89 86 83 82 83 85 85 86 82 75 66 55 47 46 49 54 61 67 72 77 82 85 88 91 93 96 97 98 99 99 100 100 99 99 99 98 96 93 90 88 85 83 82 82 81 79 75 72
93 94 92 86 88 94 94 91 88 89 88 87 88 87 81 74 60 49 45 49 53 59 64 68 71 76 82 87 89 91 93 95 98 100 100 100 100 100 100 100 99 99 97 95 93 91 90 89 88 87 86 83 79 76
91 93 94 96 98 98 98 97 96 92 90 89 86 83 76 63 52 46 48 54 57 61 65 69 73 76 81 88 91 93 95 98 99 100 100 100 100 100 100 100 100 99 98 97 97 96 96 94 92 90 88 85 84 82
96 97 98 98 98 98 99 98 95 92 89 87 83 78 69 56 47 47 51 55 59 63 68 72 75 80 83 87 91 95 96 98 100 100 100 100 100 100 100 100 99 99 99 98 98 97 95 93 92 90 88 85 82 81
98 98 98 98 98 98 99 98 97 94 92 86 82 74 61 50 49 53 56 60 63 66 70 74 78 84 87 89 91 94 96 97 98 100 99 99 99 99 99 99 98 96 95 94 92 90 89 88 87 84 80 79 81 82
98 98 98 99 99 99 99 99 98 95 91 86 78 64 53 53 54 57 61 64 66 70 73 77 81 85 87 87 88 90 94 94 95 95 95 95 95 95 95 95 94 93 92 90 89 88 86 84 81 79 79 80 84 86
99 99 99 99 99 100 100 99 97 93 87 76 60 54 56 58 60 62 64 66 70 74 77 80 83 85 85 85 86 90 93 95 97 98 98 98 97 98 98 97 96 95 93 92 90 88 87 87 87 87 86 86 88 90
99 99 100 100 100 100 99 95 92 82 66 55 55 58 60 63 65 65 66 70 74 77 80 82 82 81 81 82 84 87 90 92 95 96 97 97 98 99 100 98 96 95 92 90 88 88 89 90 91 91 90 90 92 94